GW3225 Weather Reports


time (UTC)temp
F
wind
direction
speed
knots
gust
knots
rain 1hr
in
rain 24hr
in
rain mn
in
humidity
%
barometer
mb
20260504214643 74 189 2.6 3.5 0.00 0.00 0.00 29 1003.8
20260504214140 75 229 1.7 1.7 0.00 0.00 0.00 29 1003.9
20260504213637 75 207 1.7 2.6 0.00 0.00 0.00 28 1004.0
20260504213133 75 194 0.9 0.9 0.00 0.00 0.00 31 1003.9
20260504212630 74 236 2.6 2.6 0.00 0.00 0.00 27 1003.9
20260504212127 74 166 0.0 0.9 0.00 0.00 0.00 29 1004.1
20260504211624 75 132 2.6 5.2 0.00 0.00 0.00 29 1004.1
20260504211121 75 135 1.7 3.5 0.00 0.00 0.00 29 1004.2
20260504210619 75 221 0.9 1.7 0.00 0.00 0.00 28 1004.1
20260504210114 75 190 1.7 2.6 0.00 0.00 0.00 29 1004.1
20260504205612 76 189 3.5 3.5 0.00 0.00 0.00 27 1004.2
20260504205110 75 306 1.7 2.6 0.00 0.00 0.00 29 1004.1
20260504204608 75 200 2.6 3.5 0.00 0.00 0.00 30 1004.1
20260504204107 75 200 2.6 3.5 0.00 0.00 0.00 30 1004.2
20260504203605 74 267 3.5 5.2 0.00 0.00 0.00 28 1004.5
20260504203102 74 279 3.5 5.2 0.00 0.00 0.00 29 1004.5
20260504202557 73 200 2.6 3.5 0.00 0.00 0.00 32 1004.7
20260504202054 73 193 1.7 2.6 0.00 0.00 0.00 30 1004.6
20260504201551 74 0 1.7 2.6 0.00 0.00 0.00 31 1004.7
20260504201049 74 265 1.7 2.6 0.00 0.00 0.00 30 1004.8
20260504200545 75 337 1.7 1.7 0.00 0.00 0.00 33 1004.8
20260504200042 74 219 0.9 0.9 0.00 0.00 0.00 31 1004.8
20260504195538 73 238 1.7 2.6 0.00 0.00 0.00 32 1005.1
20260504195035 72 10 1.7 2.6 0.00 0.00 0.00 33 1004.9
20260504194531 72 247 4.3 7.0 0.00 0.00 0.00 32 1005.2
20260504194026 73 208 1.7 2.6 0.00 0.00 0.00 31 1005.2
20260504193523 74 281 3.5 3.5 0.00 0.00 0.00 33 1005.3
20260504193022 73 263 4.3 7.0 0.00 0.00 0.00 33 1005.3
20260504192520 71 197 1.7 1.7 0.00 0.00 0.00 34 1005.3
20260504192018 71 180 0.9 1.7 0.00 0.00 0.00 33 1005.5
20260504191516 72 106 0.9 1.7 0.00 0.00 0.00 34 1005.5
20260504191012 72 45 2.6 5.2 0.00 0.00 0.00 34 1005.6
20260504190508 71 306 2.6 3.5 0.00 0.00 0.00 36 1005.5
20260504190004 70 237 3.5 3.5 0.00 0.00 0.00 37 1005.6
20260504185501 70 175 0.9 1.7 0.00 0.00 0.00 37 1005.7
20260504184957 71 219 0.9 0.9 0.00 0.00 0.00 38 1005.8
20260504184453 70 99 1.7 2.6 0.00 0.00 0.00 38 1005.6
20260504183949 71 266 3.5 5.2 0.00 0.00 0.00 37 1005.9
20260504183446 71 265 3.5 5.2 0.00 0.00 0.00 35 1005.9
20260504182944 71 273 4.3 5.2 0.00 0.00 0.00 37 1005.8
20260504182440 71 217 2.6 3.5 0.00 0.00 0.00 37 1006.1
20260504181938 69 197 0.0 0.9 0.00 0.00 0.00 41 1006.2
20260504181435 69 44 2.6 3.5 0.00 0.00 0.00 42 1006.1
20260504180933 69 304 7.8 9.6 0.00 0.00 0.00 40 1006.0
20260504180432 69 16 3.5 7.0 0.00 0.00 0.00 42 1006.1
20260504175930 69 207 2.6 2.6 0.00 0.00 0.00 41 1006.0
20260504175427 69 208 0.9 0.9 0.00 0.00 0.00 42 1006.1
20260504174924 70 198 0.9 0.9 0.00 0.00 0.00 42 1006.1
20260504174422 69 222 1.7 1.7 0.00 0.00 0.00 42 1006.1
20260504173919 69 355 3.5 7.0 0.00 0.00 0.00 42 1006.2
20260504173415 70 243 1.7 1.7 0.00 0.00 0.00 42 1006.0
20260504172913 69 274 4.3 6.1 0.00 0.00 0.00 42 1006.1
20260504172409 69 263 3.5 5.2 0.00 0.00 0.00 42 1006.2
20260504171905 70 201 0.9 1.7 0.00 0.00 0.00 42 1006.0
20260504171403 70 233 1.7 2.6 0.00 0.00 0.00 43 1006.2
20260504170859 69 141 0.9 0.9 0.00 0.00 0.00 43 1006.2
20260504170356 68 298 0.9 2.6 0.00 0.00 0.00 46 1006.1
20260504160315 65 156 0.9 0.9 0.00 0.00 0.00 46 1007.0
20260504150739 62 272 1.7 2.6 0.00 0.00 0.00 51 1007.4
20260504150236 61 165 1.7 2.6 0.00 0.00 0.00 49 1007.3
20260504141206 58 184 0.9 1.7 0.00 0.00 0.00 52 1007.3
20260504140702 58 129 0.9 0.9 0.00 0.00 0.00 52 1007.4
20260504140158 57 178 0.9 1.7 0.00 0.00 0.00 52 1007.5
20260504130626 54 147 0.9 0.9 0.00 0.00 0.00 55 1007.9
20260504130123 54 162 2.6 5.2 0.00 0.00 0.00 53 1008.1
20260504110514 50 153 1.7 3.5 0.00 0.00 0.00 57 1008.0
20260504100431 49 187 0.9 0.9 0.00 0.00 0.00 57 1007.5
20260504081824 49 182 0.0 0.0 0.00 0.00 0.00 55 1008.5
20260504081321 49 183 0.9 0.9 0.00 0.00 0.00 55 1008.6
20260504080816 49 163 0.9 0.9 0.00 0.00 0.00 55 1008.5
20260504080314 49 183 1.7 2.6 0.00 0.00 0.00 55 1008.6
20260504070235 48 195 0.0 0.0 0.00 0.00 0.00 57 1008.9
20260504060155 49 171 1.7 1.7 0.00 0.00 0.00 54 1009.2
20260504050624 50 208 0.9 1.7 0.00 0.00 0.00 54 1009.6
20260504050121 50 106 0.0 0.9 0.00 0.00 0.00 53 1009.5
20260504045618 50 191 0.9 1.7 0.00 0.00 0.00 53 1009.4
20260504045112 50 209 0.9 0.9 0.00 0.00 0.00 52 1009.6
20260504044611 50 158 2.6 3.5 0.00 0.00 0.00 53 1009.5
20260504044107 50 206 0.0 0.0 0.00 0.00 0.00 53 1009.5
20260504043604 50 193 0.0 0.0 0.00 0.00 0.00 53 1009.5
20260504043101 50 211 0.9 1.7 0.00 0.00 0.00 53 1009.6
20260504042558 50 193 0.0 0.0 0.00 0.00 0.00 52 1009.6
20260504042055 50 193 0.0 0.0 0.00 0.00 0.00 52 1009.5
20260504041551 50 121 1.7 2.6 0.00 0.00 0.00 53 1009.7
20260504041047 50 182 0.0 0.9 0.00 0.00 0.00 53 1009.7
20260504040545 50 127 1.7 5.2 0.00 0.00 0.00 53 1009.6
20260504040041 51 211 0.0 0.9 0.00 0.00 0.00 53 1009.6
20260504035538 51 188 0.0 0.0 0.00 0.00 0.00 54 1009.6
20260504035034 51 165 0.9 0.9 0.00 0.00 0.00 54 1009.5
20260504034533 51 212 0.9 1.7 0.00 0.00 0.00 53 1009.7
20260504034029 51 206 1.7 2.6 0.00 0.00 0.00 52 1009.6
20260504033528 51 241 0.9 1.7 0.00 0.00 0.00 53 1009.7
20260504033024 51 252 1.7 1.7 0.00 0.00 0.00 52 1009.6
20260504032521 51 196 0.0 0.0 0.00 0.00 0.00 52 1009.8
20260504032018 51 147 1.7 2.6 0.00 0.00 0.00 52 1009.7
20260504031515 52 171 0.9 0.9 0.00 0.00 0.00 51 1009.8
20260504031011 52 206 0.0 0.9 0.00 0.00 0.00 52 1009.7
20260504030509 52 5 2.6 3.5 0.00 0.00 0.00 51 1009.8
20260504030004 51 183 0.0 0.9 0.00 0.00 0.00 53 1009.6
20260504025501 51 189 0.0 0.0 0.00 0.00 0.00 54 1009.8
20260504024958 51 187 0.0 0.0 0.00 0.00 0.00 54 1009.8
20260504024455 52 197 0.0 0.9 0.00 0.00 0.00 54 1009.7
20260504023953 52 202 0.9 1.7 0.00 0.00 0.00 54 1009.9
20260504023449 52 197 0.0 0.9 0.00 0.00 0.00 53 1009.9
20260504022944 52 196 0.9 0.9 0.00 0.00 0.00 53 1009.9
20260504022441 53 193 0.0 0.9 0.00 0.00 0.00 52 1010.1
20260504021938 53 51 0.9 1.7 0.00 0.00 0.00 52 1010.2
20260504021435 53 189 0.0 0.0 0.00 0.00 0.00 52 1010.2
20260504020932 53 309 2.6 2.6 0.00 0.00 0.00 51 1009.8
20260504020429 53 224 2.6 3.5 0.00 0.00 0.00 52 1009.9
20260504015925 53 179 0.9 1.7 0.00 0.00 0.00 52 1010.0
20260504015421 53 219 1.7 2.6 0.00 0.00 0.00 51 1010.1
20260504014917 53 306 5.2 8.7 0.00 0.00 0.00 50 1010.1
20260504014414 54 343 2.6 7.8 0.00 0.00 0.00 49 1010.3
20260504013911 54 276 3.5 3.5 0.00 0.00 0.00 47 1010.1
20260504013409 54 105 2.6 3.5 0.00 0.00 0.00 48 1009.9
20260504012905 54 181 4.3 8.7 0.00 0.00 0.00 47 1009.9
20260504012403 53 324 4.3 8.7 0.00 0.00 0.00 48 1009.9
20260504011900 53 320 4.3 7.8 0.00 0.00 0.00 47 1009.8
20260504011356 53 241 0.9 0.9 0.00 0.00 0.00 48 1010.1
20260504010847 53 301 2.6 3.5 0.00 0.00 0.00 49 1009.8
20260504010343 53 247 2.6 2.6 0.00 0.00 0.00 49 1009.9
20260504005839 53 26 1.7 2.6 0.00 0.00 0.00 49 1010.2
20260504005336 53 289 3.5 6.1 0.00 0.00 0.00 48 1010.1
20260504004834 53 199 5.2 11.3 0.00 0.00 0.00 47 1010.3
20260504004331 53 177 3.5 5.2 0.00 0.00 0.00 47 1010.3
20260504003827 53 143 3.5 6.1 0.00 0.00 0.00 46 1010.4
20260504003325 53 194 0.9 1.7 0.00 0.00 0.00 48 1010.2
20260504002821 53 242 4.3 7.0 0.00 0.00 0.00 47 1010.4
20260504002318 53 116 6.1 11.3 0.00 0.00 0.00 46 1010.3
20260504001816 53 289 4.3 6.1 0.00 0.00 0.00 45 1010.4
20260504001313 53 302 5.2 7.8 0.00 0.00 0.00 44 1010.4
20260504000810 53 237 2.6 3.5 0.00 0.00 0.00 45 1010.2
20260504000307 53 293 4.3 5.2 0.00 0.00 0.00 46 1009.9
20260503235804 53 253 1.7 2.6 0.00 0.00 0.00 46 1009.9
20260503235302 53 237 2.6 2.6 0.00 0.00 0.00 45 1009.9
20260503234759 53 199 2.6 2.6 0.00 0.00 0.00 46 1010.0
20260503234257 53 318 3.5 5.2 0.00 0.00 0.00 46 1010.0
20260503233754 53 294 3.5 8.7 0.00 0.00 0.00 45 1010.0
20260503233249 53 310 2.6 2.6 0.00 0.00 0.00 45 1010.1
20260503232746 53 157 3.5 6.1 0.00 0.00 0.00 45 1010.1
20260503232238 53 259 7.0 13.0 0.00 0.00 0.00 44 1010.3
20260503231736 54 303 5.2 7.8 0.00 0.00 0.00 43 1010.2
20260503231233 54 320 8.7 16.5 0.00 0.00 0.00 43 1010.0
20260503230728 54 261 5.2 9.6 0.00 0.00 0.00 43 1010.0
20260503230226 54 44 7.0 9.6 0.00 0.00 0.00 44 1009.9
20260503225718 55 15 4.3 7.0 0.00 0.00 0.00 44 1009.7
20260503225217 55 275 8.7 19.1 0.00 0.00 0.00 42 1009.8
20260503224714 55 148 2.6 3.5 0.00 0.00 0.00 42 1009.5
20260503224212 55 287 2.6 3.5 0.00 0.00 0.00 41 1009.7
20260503223710 55 310 6.1 7.8 0.00 0.00 0.00 40 1009.6
20260503223208 56 288 7.8 12.2 0.00 0.00 0.00 38 1009.6
20260503222704 56 41 5.2 7.0 0.00 0.00 0.00 38 1009.7
20260503222202 56 63 3.5 5.2 0.00 0.00 0.00 38 1009.4
20260503221700 56 298 3.5 3.5 0.00 0.00 0.00 38 1009.6
20260503221157 56 133 4.3 7.0 0.00 0.00 0.00 38 1009.4
20260503220654 56 342 6.1 7.8 0.00 0.00 0.00 38 1009.6
20260503220150 56 288 4.3 6.1 0.00 0.00 0.00 37 1009.5
20260503215647 56 13 3.5 6.1 0.00 0.00 0.00 37 1009.7
20260503215143 56 328 3.5 5.2 0.00 0.00 0.00 37 1009.4